Regional Weather Roundup
Issued by NWS Grand Forks, ND

Home | Current Version | Previous Version | Graphics & Text | Print | Product List | Glossary On
Versions: 1 2 3 4 5 6 7 8 9 10 11 12 13 14 15 16 17 18 19 20 21 22 23 24 25 26 27 28 29 30 31 32 33 34 35 36 37 38 39 40 41 42 43 44 45 46 47 48 49 50
000
ASUS43 KFGF 021131
RWRFGF
PRAIRIE TO PINES  WEATHER ROUNDUP
NATIONAL WEATHER SERVICE EASTERN NORTH DAKOTA/GRAND FORKS ND
600 AM CDT TUE JUN 02 2015

 **SATELLITE DATA USED TO AUGMENT SKY COVER AT AUTOMATED STATIONS**
 *****  WEATHER ACROSS EASTERN NORTH DAKOTA  *****

CITY           SKY/WX    TMP DP  RH WIND       PRES   REMARKS
GRAND FORKS    TSTM      57  54  88 S14G22    29.84F
GRAND FRKS AFB CLOUDY    57  54  88 S12       29.83S
GRAND FRKS NWS   N/A     55 N/A N/A S9          N/A
DEVILS LAKE    CLOUDY    61  54  77 S14       29.82R
FARGO          CLOUDY    62  49  62 S21       29.85S
WAHPETON ARPT  CLOUDY    57  46  67 S15       29.88S
$$

 ***** WEATHER ACROSS CENTRAL AND WESTERN NORTH DAKOTA  *****

CITY           SKY/WX    TMP DP  RH WIND       PRES   REMARKS
BISMARCK       CLOUDY    63  57  81 CALM      29.80S
MINOT          CLOUDY    59  57  93 CALM      29.82S
JAMESTOWN      LGT RAIN  62  57  83 S6        29.83R
MINOT AFB      CLOUDY    59  59 100 NW1       29.81S
GARRISON         N/A     60  57  89 S5        29.82F
WILLISTON      LGT RAIN  62  58  86 NE13      29.79F
DICKINSON      CLOUDY    57  55  93 E13       29.76F
HETTINGER      MOCLDY    59  54  83 NE21      29.80F
$$

 *****  OTHER AIRPORT OBSERVATIONS IN OUR AREA  *****

CITY           SKY/WX    TMP DP  RH WIND       PRES   REMARKS
WALHALLA       FAIR      55  55 100 MISG      29.82S
GRAFTON AIRPOR FAIR      57  57 100 SE14G22   29.82R
VALLEY CITY AR CLOUDY    63  57  82 S9        29.86F
CANDO          PTSUNNY   59  57  94 S5        29.83R
CAVALIER APRT  PTSUNNY   57  55  94 SE3       29.82S
GWINNER        NOT AVBL
SHEYENNE NWR     N/A     59  51  75 SE7       29.95S
ROLLA          CLOUDY    55  55 100 N7        29.84F
 ***** THE ABOVE OBSERVATIONS ARE NON NWS ARE NOT QUALITY
       CONTROLLED AND MAY MIS-REPORT RAIN FOR SNOW...
$$

  *****  WEATHER ACROSS NORTHERN MINNESOTA  *****

CITY           SKY/WX    TMP DP  RH WIND       PRES   REMARKS
FLAG ISLAND    NOT AVBL
WARROAD        CLOUDY    59  50  72 S7        29.87F
ROSEAU         MOCLDY    59  52  77 S10       29.87R
HALLOCK        CLOUDY    55  52  88 S8        29.82F
THF RVR FALLS  CLOUDY    57  52  82 S13       29.87F
BAUDETTE       CLOUDY    57  43  59 SE10      29.91F
WASKISH        LGT RAIN  57  46  67 CALM      29.94S
CROOKSTON      TSTM      55  54  94 S9        29.89R
STEPHEN NDAWN    N/A     57  54  88 S13         N/A
GREENBUSH NDAW   N/A     55  54  94 S7          N/A
$$
  *****  WEATHER ACROSS CENTRAL AND WEST MINNESOTA  *****

CITY           SKY/WX    TMP DP  RH WIND       PRES   REMARKS
FOSSTON        DRIZZLE   54  52  94 SE13G18   29.89F
BEMIDJI        CLOUDY    59  41  51 S8G18     29.93S
PARK RAPIDS    CLOUDY    57  41  55 SE9       29.95F
ELBOW LAKE     FAIR      58  48  67 S16G25    29.92R
WADENA         CLOUDY    57  43  58 S8        29.96R
DETROIT LAKES  CLOUDY    59  46  63 SE10      29.93S
MOORHEAD       CLOUDY    61  48  63 SE16G22   29.88R
FERGUS FALLS   CLOUDY    61  46  59 S17       29.92
MORRIS MN      CLOUDY    57  48  72 SE14      29.93R
STAPLES        CLOUDY    55  43  62 SE8       29.98S
$$
  *****  WEATHER ELSEWHERE ACROSS MINNESOTA  *****

CITY           SKY/WX    TMP DP  RH WIND       PRES   REMARKS
DULUTH         PTCLDY    47  37  68 SE7       30.08F
INTRNTL FALLS  CLOUDY    55  39  54 S5        29.97R
ELY            MOCLDY    54  37  54 S8        30.05S
CLOQUET        PTCLDY    41  36  81 CALM      30.08R
WHEATON        CLOUDY    55  48  76 SE14      29.91R
BRAINERD       CLOUDY    56  42  59 S10       30.00F
HIBBING        MOCLDY    44  37  76 SE6       30.05F
ALEXANDRIA     CLOUDY    59  45  59 S15       29.97F
SAINT CLOUD    MOCLDY    51  43  74 SE6       30.03F
MINNEAPOLIS    MOCLDY    54  41  61 SE8       30.08S
$$

  *****  WEATHER ACROSS SOUTH DAKOTA  *****

CITY           SKY/WX    TMP DP  RH WIND       PRES   REMARKS
SIOUX FALLS    MOCLDY    60  53  77 S14       29.96F
BROOKINGS      MOCLDY    57  50  77 S14       29.95F
WATERTOWN      CLOUDY    58  51  78 S15       29.89F
HURON          MOCLDY    62  54  74 SE15G24   29.84F
SISSETON         N/A     62  53  72 S17       29.85S
ABERDEEN       CLOUDY    62  53  72 S21G26    29.81F
MITCHELL       CLOUDY    62  54  74 S16G25    29.88F
PIERRE         CLOUDY    64  60  87 S9        29.80R
MOBRIDGE       CLOUDY    65  63  93 SE7       29.77R
RAPID CITY     PTCLDY    58  53  84 CALM      29.80S
$$

  *****  SOME WEATHER IN NEARBY STATES *****

CITY           SKY/WX    TMP DP  RH WIND       PRES   REMARKS
GLASGOW MT     RAIN      55  50  83 N9        29.87R
GREAT FALLS MT CLOUDY    52  51  97 CALM      29.86F
CHEYENNE WY    PTCLDY    51  46  83 CALM      30.03R
SCOTTSBLUFF NE MOCLDY    59  54  83 W6        29.93R
OMAHA NE       CLOUDY    57  53  86 SE12      30.06F
DES MOINES IA  MOCLDY    55  51  86 SE5       30.12R
DAVENPORT IA   PTCLDY    50  44  80 SE6       30.18S
CHICAGO IL     PTCLDY    45  39  79 CALM      30.19R
EAU CLAIRE WI  PTCLDY    48  37  65 SE3       30.15R
LA CROSSE WI   CLEAR     51  39  63 SE7       30.17R
$$

  *****  SOME NATIONAL WEATHER *****

CITY           SKY/WX    TMP DP  RH WIND       PRES   REMARKS
LA GUARDIA NY  LGT RAIN  50  46  87 NE10      30.13R FOG
RALEIGH NC     PTSUNNY   69  66  90 CALM      30.00R
ATLANTA GA     PTCLDY    65  63  93 NW3       30.02R
NEW ORLEANS LA MOCLDY    72  68  87 CALM      29.98S
OKLAHOMA CITY  MOCLDY    65  61  87 S7        30.01S
ALBUQUERQUE NM PTCLDY    60  42  51 S3        30.13S
SALT LAKE CITY PTCLDY    60  47  61 CALM      29.89R
LOS ANGELES CA PTCLDY    59  56  89 SE7       29.98S
BOISE ID       MOCLDY    59  50  72 CALM      29.97R
SEATTLE WA     CLOUDY    55  52  89 S12       29.97S
$$

*** WEATHER ACROSS MANITOBA...SASKATCHEWAN AND ONTARIO ***
                ***ONTARIO***

CITY           SKY/WX    TMP DP  RH WIND       PRES   REMARKS
GERALDTON      PTCLDY    46  28  49 S8        30.12S
THUNDER BAY    MOCLDY    45  39  81 NE3       30.13
SIOUX LOOKOUT  MOCLDY    55  39  54 S8        29.96F
TORONTO        MOSUNNY   50  46  87 N5        30.20S
BIG TROUT LK   HVY RAIN  50  45  81 SW7       29.78R
PICKLE LAKE    MOCLDY    55  36  47 S14       29.92
DRYDEN         LGT RAIN  55  41  58 S12G20    29.95S
KENORA         LGT RAIN  55  45  67 S13       29.89F
$$
                *** MANITOBA***

CITY           SKY/WX    TMP DP  RH WIND       PRES   REMARKS
BRANDON        MOCLDY    54  50  87 NE9       29.85S
DAUPHIN        CLEAR     50  45  81 W5        29.92R
ISLAND LAKE    MOCLDY    50  45  81 NW8       29.80R
PILOT MOUND      N/A     52  50  93 W2          N/A
THE PAS        PTCLDY    46  37  71 NW13      29.95R
THOMPSON       PTCLDY    41  32  70 W13       29.80R
WINNIPEG       CLOUDY    55  52  88 S8        29.84R
LYNN LAKE      CLOUDY    39  30  70 W17G31    29.84R
CHURCHILL      MOCLDY    45  41  87 W16G25    29.50R
GILLAM         PTCLDY    45  37  76 W17G25    29.68S
$$
                ***SASKATCHEWAN***

CITY           SKY/WX    TMP DP  RH WIND       PRES   REMARKS
ESTEVAN        MOCLDY    54  48  82 N9        29.86R
KINDERSLEY     MOCLDY    50  45  81 NE17      29.96F
LLOYDMINSTER   CLEAR     39  37  93 NE5       30.04R
PRINCE ALBERT  MOCLDY    36  34  93 VRB2      30.05R
REGINA         MOCLDY    52  45  76 NE12      29.93S
YORKTON        CLEAR     45  43  93 N6        29.95R
N. BATTLEFORD  MOCLDY    43  41  93 NE7       30.04F
LA RONGE       CLEAR     37  32  81 W6        30.03S
SASKATOON      MOCLDY    45  41  87 NE9       30.03
SWIFT CURRENT  CLEAR     48  43  81 E10       29.94R
$$
NOTE: THESE ARE AUTOMATED STATIONS WITH LIMITED QUALITY CONTROL
      "FAIR" INDICATES FEW OR NO CLOUDS BELOW 12,000 FEET WITH NO
      SIGNIFICANT WEATHER AND/OR OBSTRUCTIONS TO VISIBILITY.
      SKY/WX - SKY CONDITION AND SIGNIFICANT WEATHER.
      TMP - AIR TEMPERATURE.    DP   - DEWPOINT TEMPERATURE.
      RH  - RELATIVE HUMIDITY.  PRES - PRESSURE.
      HX  - HEAT INDEX.         WCI  - WIND CHILL INDEX.
$


USA.gov is the U.S. government's official web portal to all federal, state and local government web resources and services.